Flag for Canada Weather past 2 weeks in Rouyn-Noranda, Quebec, Canada

Now
57 °F

Partly sunny.


Feels Like: 56 °F
Forecast: 44 / 57 °F
Wind: 7 mph from North

Location: Rouyn Airport

Current Time: Sep 23, 2014 at 3:02:52 PM

Latest Report: Sep 23, 2014 at 2:00 PM


Visibility: 15 mi

Pressure: 30.28 "Hg

Humidity: 63%

Dew point: 45 °F

Location of Rouyn-NorandaLocation

Historic Weather in Rouyn-Noranda — Graph

°F

Rouyn-Noranda temperature yesterday

Maximum temperature yesterday: 46 °F (at 1:00 PM)
Minimum temperature yesterday: 37 °F (at 4:00 AM)
Average temperature yesterday: 42 °F

Past Weeks' High & Low Weather Summary

 TemperatureHumidityPressure
High75 °F (Sep 8, 3:00 PM)100% (Sep 10, 3:00 AM)30.38 "Hg (Sep 10, 3:00 AM)
Low25 °F (Sep 19, 4:00 AM)41% (Sep 8, 5:00 PM)29.30 "Hg (Sep 11, 4:00 AM)
Average46 °F85%30.04 "Hg
* Reported Sep 8 1:00 PM — Sep 23 1:00 PM, Rouyn-Noranda, Weather by CustomWeather, © 2014

Note: Actual official high and low records may vary slightly from our data, if they occured in-between our weather recording intervals... More about our weather records

Advertising

Rouyn-Noranda weather history for previous 24 hours

 ConditionsComfort  
Time TempWeatherWind HumidityBarometerVisibility
1:00 PM
Sep 23
55 °FPartly sunny.9 mph67%30.26 "Hg15 mi
12:00 PM54 °FBroken clouds.8 mph77%30.24 "Hg15 mi
11:00 AM54 °FPartly sunny.12 mph88%30.22 "Hg15 mi
10:00 AM52 °FFog.7 mph94%30.19 "Hg12 mi
9:00 AM52 °FFog.6 mph94%30.16 "Hg4 mi
8:00 AM50 °FFog.5 mph100%30.14 "Hg3 mi
7:48 AM50 °FFog.6 mph100%30.13 "Hg3 mi
7:00 AM50 °FDrizzle. Fog.5 mph94%30.11 "Hg2 mi
6:00 AM48 °FDrizzle. Fog.5 mph100%30.09 "Hg2 mi
5:00 AM48 °FSprinkles. Fog.6 mph100%30.07 "Hg4 mi
4:00 AM46 °FSprinkles. Mostly cloudy.5 mph100%30.05 "Hg8 mi
3:00 AM46 °FSprinkles. Overcast.5 mph100%30.04 "Hg15 mi
2:00 AM45 °FSprinkles. Overcast.5 mph100%30.04 "Hg15 mi
1:00 AM45 °FSprinkles. Overcast.3 mph93%30.03 "Hg15 mi
12:00 AM45 °FSprinkles. Overcast.3 mph93%30.03 "Hg15 mi
11:00 PM
Sep 22
43 °FSprinkles. Overcast.5 mph100%30.03 "Hg15 mi
10:00 PM43 °FSprinkles. Overcast.3 mph100%30.02 "Hg15 mi
9:00 PM43 °FSprinkles. Overcast.3 mph100%30.01 "Hg15 mi
8:00 PM43 °FSprinkles. More clouds than sun.3 mph100%30.01 "Hg15 mi
7:00 PM45 °FSprinkles. Mostly cloudy.7 mph81%29.99 "Hg15 mi
6:00 PM45 °FPartly sunny.6 mph81%29.99 "Hg15 mi
5:00 PM45 °FPartly sunny.10 mph76%29.98 "Hg15 mi
4:00 PM45 °FSprinkles. Partly sunny.8 mph76%29.97 "Hg15 mi
3:00 PM43 °FSprinkles. Mostly cloudy.12 mph81%29.98 "Hg15 mi
Weather by CustomWeather, © 2014

See weather overviewHow to use our weather pages